< < Back
Terminal Aerodrome Forecast


Current Version              Previous Versions:   1  2  3  4  5  6  7  8  9  

Terminal Aerodrome Forecast

075
FTUS42 KFFC 301700
TAFCSG
TAF
KCSG 301729Z 3018/3118 03005KT P6SM SCT045 SCT250
     FM310300 07003KT P6SM SCT250
     FM311600 11004KT P6SM SCT040=



Latest METAR

520
SAUS70 KWBC 311100
MTRCSG
METAR KCSG 311051Z AUTO 32003KT 10SM CLR 21/16 A3002 RMK AO2 SLP161
T02060161


USA.gov is the U.S. government's official web portal to all federal, state and local government web resources and services.